map of BPS home
Great Circle Mapper logo
BPS - Airport
Location
City:  Porto Seguro, Bahia, Brazil
ICAO / IATA:SBPS / BPS

Details
Type:Airport (Aerodrome, Airfield)
Latitude:1626'19"S (-16.438638)
Longitude:3904'51"W (-39.080916)
Datum:WGS 1984
Elevation:168 ft (51 m)
Variation:23.75W (WMM2015 magnetic declination)
-0.05 annual change
Runways:1
Longest:6562 × 148 ft (2000 × 45 m), paved

Time
Time Zone:UTC-3
Local Time:

Weather
METAR:SBPS 270800Z 26005KT 9999 FEW020 SCT090 23/22 Q1015
TAF:SBPS 270300Z 2706/2806 26007KT 8000 SCT020 TN24/2707Z TX28/2714Z
TEMPO 2706/2710 5000 RA SCT005 BKN020
BECMG 2713/2715 16007KT
BECMG 2800/2802 26004KT
RMK PEA

Related Locations
Nearby:
Farthest:TIQ: 12119 mi / 19504 km
Tinian Island [Tinian Intl (West Tinian)], MP, US

Find:

   beyond  
but within

Other Information
Maps:
NOTAMs:
Links:
Sources:

  
flag of Brazil
flag of Bahia
  

Sectional Chart

Flight Planning
at skyvector.com

Satellite Image

Google Maps Satellite View

 

Copyright © 2004-2015 Karl L. Swartz. All rights reserved.
The Great Circle Mapper name and logo are trademarks of the Great Circle Mapper.
All other trademarks mentioned herein belong to their respective owners.
Please see credits for attibutions and further copyright information.

  Follow gcmap on Facebook Follow gcmap on Twitter Follow gcmap on Google+

hCard Microformat

Geo Microformat